User: anonymous   Login
Location: Unspecified
(0.0000°N, 0.0000°E)
Time: 15:55:50
(UTC+00:00)
Language:

ETS 8 - Orbit

View from above orbital plane
View from above orbital plane
View from above satellite
View from above satellite

Ground track
Ground track

The orbit data is extracted from the following two-line orbital elements,

1 29656U 06059A   14354.80212074 -.00000231  00000-0  00000+0 0  5799
2 29656 003.8861 065.2120 0005005 212.9311 245.6825 01.00272267 29360
Epoch (UTC): 20 December 2014 19:15:03
Eccentricity: 0.0005005
inclination: 3.8861°
perigee height: 35765 km
apogee height: 35807 km
right ascension of ascending node: 65.2120°
argument of perigee: 212.9311°
revolutions per day: 1.00272267
mean anomaly at epoch: 245.6825°
orbit number at epoch: 2936

The dashed part of the orbit path shows where the satellite is in the earth's shadow,  

DLR